�������l�o���
Date,Time,MP-1(��Sv/h),MP-2(��Sv/h),MP-3(��Sv/h),MP-4(��Sv/h),MP-5(��Sv/h),MP-6(��Sv/h),MP-7(��Sv/h),MP-8(��Sv/h),����,����(m/s),���J
2019/11/06,00:00,0.725,1.039,0.674,1.271,0.898,0.415,0.719,0.682,��쐼,4.1,��
2019/11/06,00:10,0.726,1.038,0.674,1.269,0.899,0.415,0.719,0.682,�쐼,2.7,��
2019/11/06,00:20,0.725,1.037,0.673,1.274,0.899,0.416,0.720,0.684,�쐼,2.9,��
2019/11/06,00:30,0.726,1.039,0.673,1.271,0.898,0.416,0.720,0.682,��쐼,3.4,��
2019/11/06,00:40,0.726,1.037,0.673,1.271,0.898,0.415,0.719,0.681,�쐼,4.5,��
2019/11/06,00:50,0.726,1.038,0.673,1.273,0.898,0.416,0.718,0.681,��쐼,3.0,��
2019/11/06,01:00,0.727,1.037,0.672,1.272,0.899,0.415,0.721,0.683,��,3.8,��
2019/11/06,01:10,0.727,1.037,0.674,1.270,0.899,0.415,0.719,0.682,��,3.8,��
2019/11/06,01:20,0.726,1.037,0.672,1.270,0.898,0.416,0.720,0.681,��,2.9,��
2019/11/06,01:30,0.725,1.036,0.674,1.271,0.897,0.415,0.721,0.684,��,3.3,��
2019/11/06,01:40,0.726,1.037,0.674,1.269,0.900,0.415,0.721,0.682,��,2.8,��
2019/11/06,01:50,0.726,1.040,0.673,1.270,0.899,0.415,0.720,0.681,��,3.3,��
2019/11/06,02:00,0.726,1.038,0.675,1.270,0.897,0.416,0.721,0.682,��쓌,2.0,��
2019/11/06,02:10,0.726,1.037,0.673,1.269,0.899,0.417,0.720,0.681,��,2.3,��
2019/11/06,02:20,0.728,1.037,0.672,1.270,0.900,0.416,0.721,0.682,��쓌,3.2,��
2019/11/06,02:30,0.728,1.037,0.672,1.270,0.898,0.415,0.721,0.683,��,3.0,��
2019/11/06,02:40,0.726,1.038,0.672,1.270,0.897,0.415,0.720,0.682,��,3.0,��
2019/11/06,02:50,0.727,1.038,0.674,1.269,0.900,0.415,0.718,0.682,��,2.3,��
2019/11/06,03:00,0.725,1.040,0.674,1.271,0.898,0.417,0.720,0.681,��,1.7,��
2019/11/06,03:10,0.727,1.040,0.673,1.272,0.897,0.415,0.722,0.681,��쓌,3.3,��
2019/11/06,03:20,0.726,1.038,0.674,1.272,0.898,0.418,0.720,0.683,��쓌,3.1,��
2019/11/06,03:30,0.727,1.039,0.675,1.272,0.897,0.415,0.720,0.681,��쓌,2.9,��
2019/11/06,03:40,0.727,1.038,0.672,1.274,0.897,0.415,0.720,0.680,��쐼,2.3,��
2019/11/06,03:50,0.725,1.036,0.672,1.270,0.900,0.416,0.719,0.683,��,1.4,��
2019/11/06,04:00,0.725,1.037,0.672,1.268,0.897,0.415,0.720,0.683,��쐼,2.7,��
2019/11/06,04:10,0.726,1.039,0.672,1.270,0.898,0.415,0.720,0.684,���쐼,3.2,��
2019/11/06,04:20,0.727,1.038,0.673,1.271,0.896,0.416,0.719,0.681,�쐼,2.6,��
2019/11/06,04:30,0.725,1.036,0.673,1.270,0.897,0.416,0.719,0.683,�쐼,4.1,��
2019/11/06,04:40,0.727,1.036,0.674,1.272,0.897,0.417,0.720,0.681,�쐼,4.1,��
2019/11/06,04:50,0.725,1.038,0.674,1.270,0.899,0.416,0.721,0.683,���쐼,6.9,��
2019/11/06,05:00,0.727,1.036,0.674,1.273,0.898,0.417,0.720,0.683,���쐼,7.4,��
2019/11/06,05:10,0.728,1.037,0.675,1.271,0.898,0.415,0.722,0.683,��,6.0,��
2019/11/06,05:20,0.726,1.038,0.675,1.273,0.898,0.416,0.721,0.681,��,5.7,��
2019/11/06,05:30,0.727,1.038,0.674,1.271,0.898,0.415,0.723,0.684,���쐼,5.2,��
2019/11/06,05:40,0.727,1.039,0.674,1.272,0.897,0.416,0.722,0.683,��,4.7,��
2019/11/06,05:50,0.726,1.037,0.673,1.272,0.897,0.416,0.721,0.683,���쐼,4.0,��
2019/11/06,06:00,0.727,1.038,0.674,1.272,0.901,0.416,0.722,0.681,��,3.3,��
2019/11/06,06:10,0.726,1.036,0.673,1.272,0.898,0.417,0.721,0.682,���쐼,5.2,��
2019/11/06,06:20,0.726,1.035,0.673,1.272,0.900,0.416,0.720,0.682,�쐼,4.1,��
2019/11/06,06:30,0.727,1.038,0.673,1.271,0.897,0.417,0.720,0.682,�쐼,3.3,��
2019/11/06,06:40,0.727,1.037,0.675,1.272,0.898,0.418,0.721,0.682,��쐼,2.8,��
2019/11/06,06:50,0.724,1.040,0.674,1.271,0.898,0.416,0.719,0.683,��쐼,3.8,��
2019/11/06,07:00,0.726,1.039,0.673,1.271,0.900,0.416,0.720,0.681,��쐼,3.3,��
2019/11/06,07:10,0.727,1.037,0.675,1.270,0.898,0.416,0.721,0.681,��쐼,1.9,��
2019/11/06,07:20,0.725,1.039,0.674,1.271,0.898,0.418,0.721,0.682,��,2.5,��
2019/11/06,07:30,0.728,1.036,0.674,1.273,0.897,0.417,0.720,0.684,��쓌,2.5,��
2019/11/06,07:40,0.726,1.035,0.674,1.272,0.897,0.417,0.720,0.684,��쓌,2.4,��
2019/11/06,07:50,0.725,1.038,0.672,1.272,0.897,0.418,0.722,0.682,��,2.1,��
2019/11/06,08:00,0.725,1.037,0.673,1.270,0.898,0.417,0.720,0.683,��쐼,1.2,��
2019/11/06,08:10,0.728,1.038,0.674,1.274,0.900,0.417,0.724,0.686,��쓌,1.4,��
2019/11/06,08:20,0.727,1.037,0.674,1.272,0.900,0.417,0.721,0.682,��,0.5,��
2019/11/06,08:30,0.729,1.033,0.672,1.274,0.897,0.417,0.720,0.684,��,1.6,��
2019/11/06,08:40,0.729,1.033,0.674,1.274,0.898,0.418,0.721,0.685,��,4.1,��
2019/11/06,08:50,0.729,1.033,0.674,1.273,0.898,0.418,0.721,0.683,���k��,3.6,��
2019/11/06,09:00,0.730,1.033,0.673,1.270,0.898,0.416,0.718,0.684,��,3.4,��
2019/11/06,09:10,0.729,1.034,0.673,1.274,0.901,0.418,0.722,0.684,��,5.0,��
2019/11/06,09:20,0.729,1.030,0.674,1.273,0.901,0.417,0.720,0.684,���쐼,5.5,��
2019/11/06,09:30,0.726,1.032,0.673,1.273,0.899,0.419,0.720,0.683,��,5.6,��
2019/11/06,09:40,0.719,1.032,0.675,1.273,0.900,0.417,0.720,0.684,��,6.0,��
2019/11/06,09:50,0.718,1.035,0.674,1.273,0.900,0.416,0.720,0.684,��,6.1,��
2019/11/06,10:00,0.721,1.032,0.675,1.270,0.897,0.415,0.719,0.682,���k��,5.8,��
2019/11/06,10:10,0.721,1.031,0.673,1.276,0.898,0.416,0.721,0.683,��,4.9,��
2019/11/06,10:20,0.722,1.034,0.672,1.274,0.898,0.417,0.721,0.685,��,6.7,��
2019/11/06,10:30,0.723,1.035,0.672,1.273,0.899,0.415,0.722,0.684,��,7.4,��
2019/11/06,10:40,0.723,1.032,0.673,1.273,0.899,0.415,0.721,0.686,��,5.7,��
2019/11/06,10:50,0.721,1.036,-,1.275,0.900,0.418,0.718,0.682,��,6.3,��
2019/11/06,11:00,0.723,1.038,-,1.276,0.899,0.416,0.720,0.684,��,5.2,��
2019/11/06,11:10,0.724,1.037,-,1.276,0.898,0.416,0.722,0.683,��,6.3,��
2019/11/06,11:20,0.725,1.034,-,1.277,0.900,0.416,0.721,0.683,��,7.4,��
2019/11/06,11:30,0.721,1.035,-,1.278,0.901,0.417,0.723,0.682,��,7.2,��
2019/11/06,11:40,0.721,1.038,-,1.275,0.899,0.416,0.722,0.682,���쐼,4.1,��
2019/11/06,11:50,0.729,1.034,-,1.275,0.902,0.417,0.723,0.683,���쐼,2.9,��
2019/11/06,12:00,0.729,1.036,-,1.276,0.900,0.417,0.722,0.683,���k��,2.9,��
2019/11/06,12:10,0.729,1.041,-,1.277,0.899,0.418,0.723,0.682,�k��,2.0,��
2019/11/06,12:20,0.729,1.040,-,1.277,0.902,0.419,0.721,0.683,��,1.9,��
2019/11/06,12:30,0.730,1.043,-,1.276,0.902,0.419,0.723,0.680,��,2.8,��
2019/11/06,12:40,0.730,1.041,-,1.277,0.903,0.419,0.720,0.681,��,3.5,��
2019/11/06,12:50,0.730,1.040,-,1.278,0.901,0.419,0.723,0.682,���쐼,2.5,��
2019/11/06,13:00,0.729,1.041,-,1.279,0.905,0.418,0.723,0.681,���쐼,4.3,��
2019/11/06,13:10,0.726,1.040,-,1.278,0.902,0.415,0.723,0.681,��,3.5,��
2019/11/06,13:20,0.728,1.039,-,1.276,0.903,0.418,0.723,0.683,���k��,3.9,��
2019/11/06,13:30,0.728,1.037,-,1.275,0.904,0.418,0.719,0.681,�k,3.2,��
2019/11/06,13:40,0.728,1.038,-,1.278,0.904,0.418,0.722,0.682,�k��,1.8,��
2019/11/06,13:50,0.729,1.040,-,1.278,0.904,0.419,0.721,0.682,�k��,1.3,��
2019/11/06,14:00,0.728,1.040,-,1.277,0.902,0.418,0.724,0.682,��,3.0,��
2019/11/06,14:10,0.728,1.039,-,1.278,0.904,0.419,0.722,0.682,��,6.1,��
2019/11/06,14:20,0.728,1.041,-,1.278,0.904,0.417,0.722,0.680,��,6.3,��
2019/11/06,14:30,0.730,1.042,-,1.278,0.903,0.418,0.723,0.683,��,7.4,��
2019/11/06,14:40,0.729,1.038,-,1.277,0.906,0.418,0.722,0.682,��,7.7,��
2019/11/06,14:50,0.729,1.040,-,1.278,0.904,0.419,0.721,0.683,��,7.4,��
2019/11/06,15:00,0.728,1.037,-,1.280,0.906,0.416,0.721,0.681,��,7.1,��
2019/11/06,15:10,0.730,1.040,-,1.279,0.906,0.417,0.723,0.681,��,5.6,��
2019/11/06,15:20,0.729,1.039,-,1.276,0.905,0.418,0.723,0.682,��,4.5,��
2019/11/06,15:30,0.728,1.041,-,1.279,0.903,0.416,0.723,0.684,��,5.8,��
2019/11/06,15:40,0.729,1.042,-,1.279,0.902,0.418,0.720,0.679,���k��,4.2,��
2019/11/06,15:50,0.729,1.043,-,1.280,0.902,0.419,0.722,0.681,��,3.9,��
2019/11/06,16:00,0.732,1.045,0.676,1.280,0.898,0.419,0.724,0.684,��,4.3,��
2019/11/06,16:10,0.728,1.046,0.677,1.278,0.904,0.419,0.722,0.685,��,3.4,��
2019/11/06,16:20,0.729,1.049,0.673,1.280,0.902,0.419,0.723,0.685,��,5.2,��
2019/11/06,16:30,0.729,1.046,0.673,1.281,0.903,0.419,0.721,0.685,��,5.5,��
2019/11/06,16:40,0.729,1.048,0.675,1.278,0.903,0.419,0.723,0.684,��,6.0,��
2019/11/06,16:50,0.729,1.047,0.677,1.279,0.904,0.420,0.721,0.683,��,5.7,��
2019/11/06,17:00,0.729,1.047,0.680,1.280,0.904,0.419,0.723,0.684,���k��,4.6,��
2019/11/06,17:10,0.731,1.045,0.679,1.278,0.904,0.417,0.722,0.683,���k��,2.8,��
2019/11/06,17:20,0.732,1.046,0.677,1.278,0.906,0.418,0.723,0.685,���k��,2.7,��
2019/11/06,17:30,0.730,1.046,0.678,1.279,0.905,0.419,0.724,0.683,���k��,3.3,��
2019/11/06,17:40,0.731,1.046,0.678,1.279,0.904,0.418,0.722,0.684,���k��,4.2,��
2019/11/06,17:50,0.731,1.047,0.678,1.278,0.907,0.421,0.723,0.682,���k��,4.4,��
2019/11/06,18:00,0.730,1.046,0.678,1.279,0.904,0.419,0.722,0.684,���k��,4.5,��
2019/11/06,18:10,0.731,1.048,0.676,1.280,0.907,0.418,0.723,0.682,��,4.3,��
2019/11/06,18:20,0.730,1.046,0.677,1.278,0.905,0.419,0.722,0.682,��,4.5,��
2019/11/06,18:30,0.733,1.044,0.678,1.278,0.905,0.419,0.724,0.683,���k��,4.4,��
2019/11/06,18:40,0.730,1.046,0.677,1.277,0.905,0.418,0.722,0.684,���k��,3.5,��
2019/11/06,18:50,0.731,1.046,0.678,1.279,0.905,0.418,0.723,0.681,�k��,2.8,��
2019/11/06,19:00,0.730,1.046,0.678,1.279,0.907,0.417,0.723,0.683,�k��,3.6,��
2019/11/06,19:10,0.731,1.044,0.680,1.278,0.905,0.417,0.722,0.682,�k��,3.8,��
2019/11/06,19:20,0.730,1.046,0.679,1.280,0.904,0.419,0.722,0.683,�k��,3.2,��
2019/11/06,19:30,0.731,1.045,0.678,1.277,0.904,0.418,0.722,0.683,���k��,4.3,��
2019/11/06,19:40,0.730,1.047,0.678,1.278,0.904,0.418,0.722,0.681,�k��,5.5,��
2019/11/06,19:50,0.731,1.045,0.679,1.279,0.904,0.416,0.722,0.683,�k��,3.8,��
2019/11/06,20:00,0.730,1.048,0.677,1.277,0.905,0.419,0.722,0.684,�k�k��,3.9,��
2019/11/06,20:10,0.729,1.045,0.677,1.278,0.906,0.417,0.724,0.683,�k�k��,4.3,��
2019/11/06,20:20,0.729,1.043,0.678,1.280,0.902,0.418,0.721,0.683,�k�k��,4.3,��
2019/11/06,20:30,0.731,1.044,0.678,1.280,0.908,0.418,0.722,0.682,�k�k��,5.0,��
2019/11/06,20:40,0.733,1.045,0.677,1.280,0.905,0.418,0.724,0.682,�k�k��,5.3,��
2019/11/06,20:50,0.730,1.049,0.677,1.278,0.905,0.417,0.723,0.683,�k,4.9,��
2019/11/06,21:00,0.729,1.044,0.679,1.277,0.903,0.415,0.724,0.683,�k�k��,4.9,��
2019/11/06,21:10,0.729,1.045,0.677,1.279,0.906,0.417,0.724,0.683,�k,4.0,��
2019/11/06,21:20,0.730,1.047,0.676,1.279,0.905,0.416,0.723,0.684,�k��,4.0,��
2019/11/06,21:30,0.730,1.044,0.677,1.280,0.904,0.416,0.723,0.681,�k�k��,2.9,��
2019/11/06,21:40,0.728,1.043,0.679,1.281,0.903,0.416,0.723,0.685,�k�k��,2.6,��
2019/11/06,21:50,0.727,1.045,0.677,1.277,0.904,0.416,0.723,0.682,�k�k��,3.4,��
2019/11/06,22:00,0.728,1.045,0.678,1.279,0.904,0.417,0.720,0.685,�k�k��,2.3,��
2019/11/06,22:10,0.730,1.044,0.678,1.277,0.905,0.416,0.722,0.683,�k��,3.0,��
2019/11/06,22:20,0.729,1.045,0.677,1.278,0.904,0.415,0.720,0.683,�k��,3.0,��
2019/11/06,22:30,0.729,1.045,0.676,1.279,0.903,0.416,0.721,0.684,�k��,3.1,��
2019/11/06,22:40,0.728,1.045,0.678,1.280,0.904,0.416,0.723,0.683,�k��,3.2,��
2019/11/06,22:50,0.730,1.045,0.674,1.281,0.903,0.415,0.722,0.681,���k��,0.9,��
2019/11/06,23:00,0.728,1.046,0.677,1.279,0.904,0.416,0.722,0.682,�k�k��,1.3,��
2019/11/06,23:10,0.729,1.044,0.678,1.280,0.903,0.415,0.722,0.683,�k,1.0,��
2019/11/06,23:20,0.730,1.044,0.676,1.278,0.905,0.415,0.722,0.683,�k�k��,1.5,��
2019/11/06,23:30,0.728,1.044,0.676,1.278,0.903,0.415,0.720,0.683,�k�k��,1.5,��
2019/11/06,23:40,0.729,1.045,0.673,1.280,0.904,0.417,0.721,0.683,�k��,1.5,��
2019/11/06,23:50,0.728,1.043,0.676,1.278,0.905,0.415,0.720,0.683,�k��,0.6,��
